• En España
  • Lista de países
  • Para 7 días
  • Temperatura del agua
  • Mapa Satelital
  • El tiempo en el mapa
  • Informadores
  • user-avatar
    Iniciar sesión

    Tiempo cada hora Djelfa

    Hoy, 22 Febrero, Jueves

    Tiempo Temperatura Precipitaciones Viento Presión Humedad
    00:00 +3°C° 0 mm 6 mps 652 mmHg 82%
    01:00 +2°C° 0,1 mm 6 mps 652 mmHg 82%
    02:00 +2°C° 0,1 mm 6 mps 652 mmHg 81%
    03:00 +1°C° 0,1 mm 6 mps 652 mmHg 80%
    04:00 +1°C° 0 mm 6 mps 652 mmHg 80%
    05:00 -1°C° 0 mm 6 mps 652 mmHg 80%
    06:00 -1°C° 0 mm 6 mps 652 mmHg 81%
    07:00 -1°C° 0 mm 6 mps 652 mmHg 76%
    08:00 0°C° 0 mm 7 mps 653 mmHg 71%
    09:00 0°C° 0 mm 7 mps 653 mmHg 67%
    10:00 +2°C° 0 mm 7 mps 653 mmHg 62%
    11:00 +3°C° 0 mm 7 mps 653 mmHg 57%
    12:00 +4°C° 0 mm 7 mps 653 mmHg 52%
    13:00 +4°C° 0,1 mm 7 mps 653 mmHg 49%
    14:00 +4°C° 0,1 mm 7 mps 653 mmHg 47%
    15:00 +4°C° 0,1 mm 7 mps 653 mmHg 45%
    16:00 +4°C° 0 mm 6 mps 653 mmHg 47%
    17:00 +3°C° 0 mm 5 mps 653 mmHg 50%
    18:00 +3°C° 0 mm 4 mps 653 mmHg 53%
    19:00 +3°C° 0 mm 4 mps 654 mmHg 56%
    20:00 +3°C° 0 mm 4 mps 654 mmHg 59%
    21:00 +2°C° 0 mm 3 mps 654 mmHg 62%
    22:00 +2°C° 0 mm 3 mps 654 mmHg 66%
    23:00 +1°C° 0 mm 3 mps 654 mmHg 70%

    Mañana, 23 Febrero, Viernes

    Tiempo Temperatura Precipitaciones Viento Presión Humedad
    00:00 +1°C° 0 mm 3 mps 654 mmHg 74%
    01:00 +1°C° 0 mm 3 mps 654 mmHg 76%
    02:00 0°C° 0 mm 3 mps 654 mmHg 79%
    03:00 0°C° 0 mm 3 mps 654 mmHg 82%
    04:00 -1°C° 0 mm 4 mps 654 mmHg 84%
    05:00 -1°C° 0 mm 4 mps 654 mmHg 86%
    06:00 -1°C° 0 mm 4 mps 654 mmHg 88%
    07:00 0°C° 0 mm 5 mps 654 mmHg 80%
    08:00 +1°C° 0 mm 6 mps 655 mmHg 72%
    09:00 +2°C° 0 mm 6 mps 655 mmHg 64%
    10:00 +3°C° 0 mm 7 mps 655 mmHg 56%
    11:00 +4°C° 0 mm 7 mps 655 mmHg 48%
    12:00 +6°C° 0 mm 7 mps 656 mmHg 39%
    13:00 +6°C° 0 mm 7 mps 655 mmHg 38%
    14:00 +8°C° 0 mm 6 mps 655 mmHg 38%
    15:00 +8°C° 0 mm 6 mps 655 mmHg 37%
    16:00 +7°C° 0 mm 5 mps 654 mmHg 41%
    17:00 +8°C° 0 mm 3 mps 654 mmHg 45%
    18:00 +7°C° 0 mm 2 mps 654 mmHg 49%
    19:00 +7°C° 0 mm 2 mps 654 mmHg 49%
    20:00 +6°C° 0 mm 2 mps 654 mmHg 49%
    21:00 +6°C° 0 mm 2 mps 655 mmHg 50%
    22:00 +6°C° 0 mm 2 mps 654 mmHg 51%
    23:00 +5°C° 0 mm 3 mps 654 mmHg 51%

    Pasado mañana, 24 Febrero, Sábado

    Tiempo Temperatura Precipitaciones Viento Presión Humedad
    00:00 +4°C° 0 mm 3 mps 654 mmHg 52%
    01:00 +4°C° 0 mm 3 mps 654 mmHg 53%
    02:00 +4°C° 0 mm 3 mps 654 mmHg 54%
    03:00 +3°C° 0 mm 3 mps 653 mmHg 55%
    04:00 +4°C° 0 mm 3 mps 653 mmHg 54%
    05:00 +4°C° 0 mm 3 mps 653 mmHg 53%
    06:00 +4°C° 0 mm 3 mps 653 mmHg 52%
    07:00 +7°C° 0 mm 3 mps 654 mmHg 47%
    08:00 +7°C° 0 mm 4 mps 654 mmHg 42%
    09:00 +9°C° 0 mm 5 mps 655 mmHg 36%
    10:00 +10°C° 0 mm 5 mps 655 mmHg 34%
    11:00 +11°C° 0 mm 6 mps 655 mmHg 33%
    12:00 +13°C° 0 mm 6 mps 655 mmHg 31%
    13:00 +13°C° 0 mm 6 mps 655 mmHg 32%
    14:00 +13°C° 0 mm 6 mps 654 mmHg 34%
    15:00 +12°C° 0 mm 7 mps 654 mmHg 36%
    16:00 +10°C° 0 mm 6 mps 654 mmHg 42%
    17:00 +8°C° 0 mm 6 mps 654 mmHg 48%
    18:00 +7°C° 0 mm 5 mps 654 mmHg 54%
    19:00 +6°C° 0 mm 5 mps 655 mmHg 56%
    20:00 +5°C° 0 mm 5 mps 655 mmHg 58%
    21:00 +4°C° 0 mm 6 mps 656 mmHg 60%
    22:00 +3°C° 0 mm 6 mps 656 mmHg 63%
    23:00 +2°C° 0 mm 6 mps 656 mmHg 66%

    25 Febrero, Domingo

    Tiempo Temperatura Precipitaciones Viento Presión Humedad
    00:00 +2°C° 0 mm 6 mps 656 mmHg 68%
    01:00 +1°C° 0 mm 6 mps 656 mmHg 72%
    02:00 +1°C° 0 mm 5 mps 656 mmHg 76%
    03:00 0°C° 0 mm 5 mps 656 mmHg 80%
    04:00 0°C° 0 mm 5 mps 656 mmHg 81%
    05:00 -1°C° 0 mm 5 mps 657 mmHg 83%
    06:00 -1°C° 0 mm 5 mps 657 mmHg 84%
    07:00 -1°C° 0 mm 6 mps 657 mmHg 74%
    08:00 +1°C° 0 mm 6 mps 658 mmHg 65%
    09:00 +3°C° 0 mm 6 mps 658 mmHg 55%
    10:00 +4°C° 0 mm 6 mps 659 mmHg 48%
    11:00 +5°C° 0 mm 6 mps 659 mmHg 41%
    12:00 +8°C° 0 mm 6 mps 659 mmHg 34%
    13:00 +8°C° 0 mm 6 mps 659 mmHg 33%
    14:00 +9°C° 0 mm 7 mps 659 mmHg 33%
    15:00 +9°C° 0 mm 7 mps 658 mmHg 32%
    16:00 +8°C° 0 mm 7 mps 659 mmHg 35%
    17:00 +8°C° 0 mm 6 mps 659 mmHg 39%
    18:00 +7°C° 0 mm 5 mps 659 mmHg 42%
    19:00 +6°C° 0 mm 4 mps 659 mmHg 46%
    20:00 +5°C° 0 mm 3 mps 659 mmHg 50%
    21:00 +6°C° 0 mm 2 mps 659 mmHg 55%
    22:00 +4°C° 0 mm 3 mps 659 mmHg 59%
    23:00 +4°C° 0 mm 3 mps 659 mmHg 63%

    26 Febrero, Lunes

    Tiempo Temperatura Precipitaciones Viento Presión Humedad
    00:00 +3°C° 0 mm 3 mps 659 mmHg 67%
    01:00 +3°C° 0 mm 3 mps 659 mmHg 69%
    02:00 +2°C° 0 mm 3 mps 658 mmHg 72%
    03:00 +2°C° 0 mm 3 mps 658 mmHg 74%
    04:00 +2°C° 0 mm 3 mps 658 mmHg 74%
    05:00 +1°C° 0 mm 3 mps 658 mmHg 73%
    06:00 +2°C° 0 mm 2 mps 658 mmHg 73%
    07:00 +3°C° 0 mm 3 mps 658 mmHg 64%
    08:00 +7°C° 0 mm 3 mps 659 mmHg 55%
    09:00 +9°C° 0 mm 3 mps 659 mmHg 46%
    10:00 +11°C° 0 mm 4 mps 659 mmHg 42%
    11:00 +13°C° 0 mm 5 mps 659 mmHg 38%
    12:00 +15°C° 0 mm 6 mps 659 mmHg 33%
    13:00 +15°C° 0 mm 6 mps 659 mmHg 31%
    14:00 +16°C° 0 mm 6 mps 658 mmHg 29%
    15:00 +16°C° 0 mm 6 mps 657 mmHg 27%
    16:00 +15°C° 0 mm 5 mps 657 mmHg 30%
    17:00 +14°C° 0 mm 4 mps 656 mmHg 33%
    18:00 +13°C° 0 mm 3 mps 656 mmHg 36%
    19:00 +13°C° 0,1 mm 3 mps 656 mmHg 39%
    20:00 +13°C° 0,1 mm 3 mps 656 mmHg 41%
    21:00 +13°C° 0,1 mm 3 mps 656 mmHg 43%
    22:00 +12°C° 0,5 mm 3 mps 655 mmHg 48%
    23:00 +12°C° 0,5 mm 4 mps 655 mmHg 53%

    27 Febrero, Martes

    Tiempo Temperatura Precipitaciones Viento Presión Humedad
    00:00 +11°C° 0,5 mm 4 mps 655 mmHg 58%
    01:00 +10°C° 0,4 mm 5 mps 654 mmHg 62%
    02:00 +10°C° 0,4 mm 5 mps 654 mmHg 66%
    03:00 +9°C° 0,4 mm 6 mps 654 mmHg 70%
    04:00 +8°C° 0,1 mm 7 mps 654 mmHg 66%
    05:00 +6°C° 0,1 mm 8 mps 654 mmHg 62%
    06:00 +6°C° 0,1 mm 9 mps 654 mmHg 58%
    07:00 +6°C° 0 mm 10 mps 655 mmHg 56%
    08:00 +6°C° 0 mm 10 mps 656 mmHg 53%
    09:00 +6°C° 0 mm 11 mps 656 mmHg 51%
    10:00 +7°C° 0 mm 11 mps 657 mmHg 51%
    11:00 +8°C° 0 mm 12 mps 657 mmHg 51%
    12:00 +9°C° 0 mm 12 mps 657 mmHg 51%
    13:00 +9°C° 0 mm 12 mps 657 mmHg 53%
    14:00 +9°C° 0 mm 12 mps 657 mmHg 55%
    15:00 +9°C° 0 mm 12 mps 657 mmHg 57%
    16:00 +8°C° 0 mm 10 mps 658 mmHg 59%
    17:00 +7°C° 0 mm 9 mps 658 mmHg 62%
    18:00 +7°C° 0 mm 8 mps 659 mmHg 64%
    19:00 +7°C° 0 mm 6 mps 659 mmHg 68%
    20:00 +7°C° 0 mm 5 mps 660 mmHg 71%
    21:00 +6°C° 0 mm 4 mps 660 mmHg 74%
    22:00 +7°C° 0 mm 3 mps 660 mmHg 76%
    23:00 +5°C° 0 mm 3 mps 660 mmHg 78%
    Mostrar más